Shoreham, United Kingdom

2:45 PM BST on August 24, 2016 (GMT +0100)
Shoreham

Weather History for EGKA - November, 2012

Change the Weather History Date:

Monday, November 12, 2012

  Actual Average Record
Temperature  
Mean Temperature 45 °F -  
Max Temperature 54 °F 48 °F 60 °F (2011)
Min Temperature 36 °F 41 °F 33 °F (1997)
Degree Days  
Heating Degree Days 20    
Moisture  
Dew Point 49 °F    
Average Humidity 93    
Maximum Humidity 100    
Minimum Humidity 82    
Precipitation  
Precipitation 0.16 in - - ()
Sea Level Pressure  
Sea Level Pressure 30.17 in    
Wind  
Wind Speed 10 mph ()    
Max Wind Speed 20 mph    
Max Gust Speed -    
Visibility 3.4 miles    
Events Rain    
Averages and records for this station are not official NWS values.
T = Trace of Precipitation, MM = Missing Value Source: Averaged Metar Reports

Daily Weather History Graph

Daily Weather History Graph

Search for Another Location

Airport or City:

Trip Planner

Search our weather history database for the weather conditions in past years. The results will help you decide how hot, cold, wet, or windy it might be!

Date:

Astronomy

Nov. 12, 2012 Rise Set
Actual Time 7:12 AM GMT 4:17 PM GMT
Civil Twilight 6:36 AM GMT 4:53 PM GMT
Nautical Twilight 5:56 AM GMT 5:33 PM GMT
Astronomical Twilight 5:17 AM GMT 6:12 PM GMT
Moon 5:12 AM GMT (11/12) 3:16 PM GMT (11/12)
Length of Visible Light 10h 17m
Length of Day
9h 05m
Waning Crescent, 3% of the Moon is Illuminated
Nov 12
Waning Crescent
Nov 13
New
Nov 20
First Quarter
Nov 28
Full
Dec 6
Last Quarter

Hourly Weather History & Observations

Time (GMT) Temp. Dew Point Humidity Pressure Visibility Wind Dir Wind Speed Gust Speed Precip Events Conditions
2:50 AM 36 °F 35 °F 97% 30.14 in - NE 1.2 mph - -  
8:50 AM 48 °F 46 °F 92% 30.18 in - SE 3.5 mph - -  
8:50 AM 50.0 °F 46.4 °F 87% 30.15 in 6.2 mi SSE 3.5 mph - N/A   Partly Cloudy
9:20 AM 51.8 °F 46.4 °F 82% 30.18 in 6.2 mi SSW 8.1 mph - N/A   Scattered Clouds
9:50 AM 50.0 °F 46.4 °F 87% 30.18 in 1.9 mi SW 12.7 mph - N/A Rain Rain
10:20 AM 50.0 °F 48.2 °F 94% 30.18 in 6.2 mi SW 9.2 mph - N/A   Scattered Clouds
10:50 AM 51.8 °F 48.2 °F 88% 30.18 in 6.2 mi SW 5.8 mph - N/A Rain Rain
11:20 AM 51.8 °F 48.2 °F 88% 30.18 in 6.2 mi SW 13.8 mph - N/A Rain Light Rain
11:50 AM 51 °F 49 °F 88% 30.18 in - SW 12.7 mph - -  
11:50 AM 51.8 °F 48.2 °F 88% 30.18 in 4.3 mi SW 12.7 mph - N/A Rain Light Rain
12:20 PM 51.8 °F 50.0 °F 94% 30.15 in 6.2 mi SW 17.3 mph - N/A Rain Light Rain
12:50 PM 51.8 °F 50.0 °F 94% 30.15 in 1.9 mi SW 16.1 mph - N/A Rain Rain
1:20 PM 51.8 °F 50.0 °F 94% 30.15 in 2.5 mi SW 17.3 mph - N/A Rain Rain
1:50 PM 51.8 °F 50.0 °F 94% 30.15 in 1.7 mi SW 17.3 mph - N/A Rain Rain
2:20 PM 51.8 °F 50.0 °F 94% 30.15 in 1.9 mi SW 19.6 mph - N/A Rain Light Rain
2:50 PM 52 °F 50 °F 92% 30.17 in - SW 18.4 mph - -  
2:50 PM 51.8 °F 50.0 °F 94% 30.15 in 1.6 mi SW 18.4 mph - N/A Rain Light Rain
3:20 PM 51.8 °F 50.0 °F 94% 30.15 in 1.1 mi SW 17.3 mph - N/A Rain Light Rain
3:50 PM 51.8 °F 50.0 °F 94% 30.15 in 0.9 mi SW 18.4 mph - N/A Rain Light Rain
4:20 PM 51.8 °F 51.8 °F 100% 30.15 in 0.9 mi SW 18.4 mph - N/A Rain Light Rain
4:50 PM 51.8 °F 51.8 °F 100% 30.15 in 1.9 mi SW 17.3 mph - N/A Rain Rain
5:20 PM 53.6 °F 51.8 °F 94% 30.15 in 2.2 mi SW 16.1 mph - N/A Rain Light Rain
5:50 PM 54 °F 53 °F 96% 30.19 in - WSW 13.8 mph - -  
5:50 PM 53.6 °F 53.6 °F 100% 30.18 in 3.1 mi SW 13.8 mph - N/A Rain Light Rain
6:20 PM 53.6 °F 53.6 °F 100% 30.18 in 4.3 mi WSW 12.7 mph - N/A Rain Light Rain
8:50 PM 54 °F 53 °F 96% 30.22 in - WSW 9.2 mph - -  
11:50 PM 53 °F 52 °F 95% 30.27 in - WSW 6.9 mph - -